User: anonymous   Login
Location: ????????
(55.0097°N, 38.5678°E)
Time: 13:34:10
(UTC+00:00)
Language:

GP-B - Orbit

View from above orbital plane
View from above orbital plane
View from above satellite
View from above satellite

Ground track
Ground track

The orbit data is extracted from the following two-line orbital elements,

1 28230U 04014A   24173.73216916  .00001039  00000-0  13249-3 0  9991
2 28230  89.8289  65.0261 0002918  73.8003 286.3542 14.80864120544885
Epoch (UTC): 21 June 2024 17:34:19
Eccentricity: 0.0002918
inclination: 89.8289°
perigee height: 624 km
apogee height: 628 km
right ascension of ascending node: 65.0261°
argument of perigee: 73.8003°
revolutions per day: 14.80864120
mean anomaly at epoch: 286.3542°
orbit number at epoch: 54488

The dashed part of the orbit path shows where the satellite is in the earth's shadow,  

DLR